| time (UTC) | temp C | wind direction | speed KPH | gust KPH | rain 1hr cm | rain 24hr cm | rain mn cm | humidity % | barometer mb |
| 20260506105003 | 14 | 348 | 6.4 | 19.3 | 0.00 | 0.00 | 0.00 | 72 | 1038.4 |
| 20260506104003 | 14 | 337 | 9.7 | 37.0 | 0.00 | 0.00 | 0.00 | 71 | 1038.3 |
| 20260506103004 | 14 | 320 | 0.0 | 4.8 | 0.00 | 0.00 | 0.00 | 71 | 1038.5 |
| 20260506102003 | 15 | 315 | 0.0 | 32.2 | 0.00 | 0.00 | 0.00 | 71 | 1038.7 |
| 20260506101213 | 15 | 326 | 4.8 | 12.9 | 0.00 | 0.00 | 0.00 | 71 | 1038.6 |
| 20260506100214 | 15 | 312 | 6.4 | 14.5 | 0.00 | 0.00 | 0.00 | 71 | 1038.4 |
| 20260506095004 | 15 | 329 | 3.2 | 25.7 | 0.00 | 0.00 | 0.00 | 70 | 1038.7 |
| 20260506094216 | 15 | 339 | 3.2 | 22.5 | 0.00 | 0.00 | 0.00 | 70 | 1038.8 |
| 20260506093217 | 15 | 328 | 12.9 | 27.4 | 0.00 | 0.00 | 0.00 | 71 | 1038.8 |
| 20260506092212 | 14 | 355 | 9.7 | 33.8 | 0.00 | 0.00 | 0.00 | 71 | 1038.7 |
| 20260506091004 | 14 | 336 | 4.8 | 27.4 | 0.00 | 0.00 | 0.00 | 72 | 1038.7 |
| 20260506090004 | 13 | 26 | 6.4 | 16.1 | 0.00 | 0.00 | 0.00 | 74 | 1038.5 |
| 20260506085003 | 13 | 332 | 3.2 | 8.0 | 0.00 | 0.00 | 0.00 | 75 | 1038.7 |
| 20260506084004 | 13 | 313 | 0.0 | 9.7 | 0.00 | 0.00 | 0.00 | 76 | 1038.7 |
| 20260506083003 | 13 | 342 | 4.8 | 20.9 | 0.00 | 0.00 | 0.00 | 78 | 1038.8 |
| 20260506082003 | 13 | 328 | 6.4 | 16.1 | 0.00 | 0.00 | 0.00 | 79 | 1039.0 |
| 20260506081003 | 13 | 339 | 1.6 | 16.1 | 0.00 | 0.00 | 0.00 | 79 | 1039.0 |
| 20260506073004 | 13 | 283 | 0.0 | 4.8 | 0.00 | 0.00 | 0.00 | 78 | 1039.4 |
| 20260506072003 | 13 | 340 | 0.0 | 8.0 | 0.00 | 0.00 | 0.00 | 77 | 1039.7 |
| 20260506071003 | 13 | 1 | 3.2 | 8.0 | 0.00 | 0.00 | 0.00 | 77 | 1039.8 |
| 20260506062003 | 14 | 308 | 0.0 | 6.4 | 0.00 | 0.00 | 0.00 | 71 | 1039.5 |
| 20260506061215 | 14 | 247 | 0.0 | 3.2 | 0.00 | 0.00 | 0.00 | 71 | 1039.4 |
| 20260506060216 | 15 | 288 | 0.0 | 4.8 | 0.00 | 0.00 | 0.00 | 70 | 1039.3 |
| 20260506051003 | 16 | 298 | 3.2 | 4.8 | 0.00 | 0.00 | 0.00 | 66 | 1039.2 |
| 20260506045003 | 17 | 330 | 1.6 | 12.9 | 0.00 | 0.00 | 0.00 | 63 | 1039.0 |
| 20260506044003 | 17 | 319 | 0.0 | 8.0 | 0.00 | 0.00 | 0.00 | 62 | 1038.9 |
| 20260506043003 | 17 | 322 | 3.2 | 11.3 | 0.00 | 0.00 | 0.00 | 62 | 1039.1 |
| 20260506042003 | 18 | 293 | 3.2 | 9.7 | 0.00 | 0.00 | 0.00 | 62 | 1039.1 |
| 20260506041003 | 18 | 330 | 4.8 | 17.7 | 0.00 | 0.00 | 0.00 | 60 | 1038.7 |
| 20260506040004 | 18 | 303 | 1.6 | 12.9 | 0.00 | 0.00 | 0.00 | 58 | 1039.1 |
| 20260506035213 | 18 | 349 | 0.0 | 4.8 | 0.00 | 0.00 | 0.00 | 55 | 1039.0 |
| 20260506030213 | 19 | 337 | 1.6 | 12.9 | 0.00 | 0.00 | 0.00 | 53 | 1038.7 |
| 20260506025214 | 19 | 287 | 0.0 | 14.5 | 0.00 | 0.00 | 0.00 | 53 | 1038.5 |
| 20260506024003 | 19 | 13 | 1.6 | 20.9 | 0.00 | 0.00 | 0.00 | 51 | 1038.8 |
| 20260506023003 | 20 | 6 | 6.4 | 12.9 | 0.00 | 0.00 | 0.00 | 49 | 1038.5 |
| 20260506022003 | 20 | 312 | 4.8 | 14.5 | 0.00 | 0.00 | 0.00 | 46 | 1038.6 |
| 20260506021213 | 20 | 334 | 4.8 | 9.7 | 0.00 | 0.00 | 0.00 | 45 | 1038.4 |
| 20260506020003 | 19 | 331 | 3.2 | 12.9 | 0.00 | 0.00 | 0.00 | 46 | 1038.1 |
| 20260506015003 | 19 | 357 | 4.8 | 9.7 | 0.00 | 0.00 | 0.00 | 48 | 1038.3 |
| 20260506014003 | 19 | 330 | 0.0 | 6.4 | 0.00 | 0.00 | 0.00 | 48 | 1038.4 |
| 20260506013003 | 20 | 275 | 0.0 | 8.0 | 0.00 | 0.00 | 0.00 | 45 | 1038.3 |
| 20260506012004 | 20 | 352 | 0.0 | 12.9 | 0.00 | 0.00 | 0.00 | 44 | 1038.3 |
| 20260506011213 | 20 | 356 | 3.2 | 14.5 | 0.00 | 0.00 | 0.00 | 44 | 1038.3 |
| 20260506010004 | 19 | 31 | 4.8 | 17.7 | 0.00 | 0.00 | 0.00 | 45 | 1038.3 |
| 20260506005003 | 19 | 354 | 3.2 | 27.4 | 0.00 | 0.00 | 0.00 | 46 | 1038.6 |
| 20260506004003 | 18 | 308 | 6.4 | 30.6 | 0.00 | 0.00 | 0.00 | 50 | 1038.5 |
| 20260506003217 | 18 | 342 | 6.4 | 20.9 | 0.00 | 0.00 | 0.00 | 51 | 1038.7 |
| 20260506002003 | 18 | 360 | 3.2 | 19.3 | 0.00 | 0.00 | 0.00 | 52 | 1039.0 |
| 20260506001003 | 18 | 345 | 0.0 | 16.1 | 0.00 | 0.00 | 0.00 | 52 | 1038.9 |
| 20260506000004 | 17 | 345 | 4.8 | 14.5 | 0.00 | 0.00 | 0.00 | 51 | 1038.9 |
| 20260505235003 | 17 | 351 | 6.4 | 16.1 | 0.00 | 0.00 | 0.00 | 53 | 1039.2 |
| 20260505234217 | 16 | 348 | 6.4 | 33.8 | 0.00 | 0.00 | 0.00 | 59 | 1039.2 |
| 20260505233003 | 16 | 349 | 3.2 | 12.9 | 0.00 | 0.00 | 0.00 | 65 | 1039.1 |
| 20260505232003 | 15 | 316 | 6.4 | 12.9 | 0.00 | 0.00 | 0.00 | 75 | 1039.2 |
| 20260505231003 | 14 | 334 | 3.2 | 12.9 | 0.00 | 0.00 | 0.00 | 83 | 1039.0 |
| 20260505230004 | 13 | 341 | 1.6 | 8.0 | 0.00 | 0.00 | 0.00 | 90 | 1039.4 |
| 20260505225003 | 13 | 357 | 3.2 | 9.7 | 0.00 | 0.00 | 0.00 | 93 | 1039.3 |
| 20260505224003 | 13 | 332 | 0.0 | 6.4 | 0.00 | 0.00 | 0.00 | 94 | 1039.4 |
| 20260505223003 | 13 | 298 | 0.0 | 3.2 | 0.00 | 0.00 | 0.00 | 94 | 1039.3 |
| 20260505222003 | 12 | 263 | 1.6 | 6.4 | 0.00 | 0.00 | 0.00 | 93 | 1039.4 |
| 20260505221003 | 11 | 225 | 0.0 | 6.4 | 0.00 | 0.00 | 0.00 | 94 | 1039.3 |
| 20260505220004 | 10 | 328 | 1.6 | 6.4 | 0.00 | 0.00 | 0.00 | 94 | 1039.4 |
| 20260505215004 | 10 | 286 | 1.6 | 11.3 | 0.00 | 0.00 | 0.00 | 93 | 1039.4 |
| 20260505214003 | 9 | 256 | 1.6 | 3.2 | 0.00 | 0.00 | 0.00 | 94 | 1039.5 |
| 20260505213003 | 9 | 231 | 0.0 | 4.8 | 0.00 | 0.00 | 0.00 | 94 | 1039.5 |
| 20260505212003 | 8 | 254 | 0.0 | 4.8 | 0.00 | 0.00 | 0.00 | 94 | 1039.4 |
| 20260505211216 | 7 | 306 | 1.6 | 3.2 | 0.00 | 0.00 | 0.00 | 93 | 1039.8 |
| 20260505210003 | 6 | 345 | 1.6 | 4.8 | 0.00 | 0.00 | 0.00 | 93 | 1039.7 |
| 20260505205004 | 5 | 191 | 0.0 | 1.6 | 0.00 | 0.00 | 0.00 | 93 | 1039.7 |
| 20260505204004 | 4 | 112 | 0.0 | 1.6 | 0.00 | 0.00 | 0.00 | 93 | 1039.8 |
| 20260505203003 | 3 | 225 | 0.0 | 1.6 | 0.00 | 0.00 | 0.00 | 92 | 1039.6 |
| 20260505201004 | 3 | 152 | 0.0 | 3.2 | 0.00 | 0.00 | 0.00 | 93 | 1039.4 |
| 20260505200003 | 3 | 305 | 0.0 | 3.2 | 0.00 | 0.00 | 0.00 | 92 | 1039.3 |
| 20260505195214 | 3 | 195 | 0.0 | 3.2 | 0.00 | 0.00 | 0.00 | 92 | 1039.2 |
| 20260505194004 | 3 | 205 | 1.6 | 3.2 | 0.00 | 0.00 | 0.00 | 92 | 1038.9 |
| 20260505193215 | 3 | 211 | 0.0 | 8.0 | 0.00 | 0.00 | 0.00 | 92 | 1039.2 |
| 20260505192003 | 2 | 35 | 0.0 | 3.2 | 0.00 | 0.00 | 0.00 | 87 | 1039.1 |
| 20260505191003 | 2 | 321 | 1.6 | 3.2 | 0.00 | 0.00 | 0.00 | 87 | 1039.1 |
| 20260505190213 | 2 | 225 | 0.0 | 1.6 | 0.00 | 0.00 | 0.00 | 87 | 1039.2 |
| 20260505185004 | 2 | 249 | 0.0 | 3.2 | 0.00 | 0.00 | 0.00 | 87 | 1039.2 |
| 20260505184215 | 2 | 224 | 0.0 | 6.4 | 0.00 | 0.00 | 0.00 | 87 | 1039.4 |
| 20260505183004 | 2 | 199 | 3.2 | 9.7 | 0.00 | 0.00 | 0.00 | 87 | 1039.5 |
| 20260505182004 | 2 | 201 | 0.0 | 9.7 | 0.00 | 0.00 | 0.00 | 87 | 1039.2 |
| 20260505181004 | 2 | 78 | 0.0 | 11.3 | 0.00 | 0.00 | 0.00 | 87 | 1039.3 |
| 20260505180214 | 2 | 236 | 1.6 | 14.5 | 0.00 | 0.00 | 0.00 | 87 | 1039.3 |
| 20260505175003 | 2 | 242 | 0.0 | 17.7 | 0.00 | 0.00 | 0.00 | 86 | 1039.4 |
| 20260505174003 | 2 | 229 | 1.6 | 6.4 | 0.00 | 0.00 | 0.00 | 86 | 1039.6 |
| 20260505173217 | 2 | 176 | 0.0 | 4.8 | 0.00 | 0.00 | 0.00 | 86 | 1039.5 |
| 20260505172003 | 2 | 239 | 0.0 | 3.2 | 0.00 | 0.00 | 0.00 | 86 | 1039.6 |
| 20260505171003 | 2 | 247 | 0.0 | 3.2 | 0.00 | 0.00 | 0.00 | 86 | 1039.4 |
| 20260505170004 | 2 | 0 | 0.0 | 0.0 | 0.00 | 0.00 | 0.00 | 86 | 1039.6 |
| 20260505165004 | 2 | 0 | 0.0 | 0.0 | 0.00 | 0.00 | 0.00 | 90 | 1040.0 |
| 20260505164003 | 3 | 301 | 0.0 | 3.2 | 0.00 | 0.00 | 0.00 | 90 | 1039.8 |
| 20260505163004 | 3 | 177 | 0.0 | 6.4 | 0.00 | 0.00 | 0.00 | 90 | 1040.1 |
| 20260505162004 | 3 | 186 | 0.0 | 4.8 | 0.00 | 0.00 | 0.00 | 90 | 1039.9 |
| 20260505161004 | 3 | 182 | 1.6 | 3.2 | 0.00 | 0.00 | 0.00 | 91 | 1040.1 |
| 20260505153213 | 3 | 346 | 0.0 | 3.2 | 0.00 | 0.00 | 0.00 | 90 | 1040.0 |
| 20260505152004 | 3 | 0 | 0.0 | 0.0 | 0.00 | 0.00 | 0.00 | 90 | 1040.4 |
| 20260505151003 | 3 | 28 | 0.0 | 3.2 | 0.00 | 0.00 | 0.00 | 89 | 1040.5 |
| 20260505125003 | 5 | 0 | 0.0 | 0.0 | 0.00 | 0.00 | 0.00 | 88 | 1041.6 |
| 20260505124214 | 5 | 270 | 0.0 | 1.6 | 0.00 | 0.00 | 0.00 | 87 | 1041.7 |
| 20260505123004 | 5 | 270 | 0.0 | 1.6 | 0.00 | 0.00 | 0.00 | 87 | 1041.8 |
| 20260505122003 | 5 | 287 | 0.0 | 1.6 | 0.00 | 0.00 | 0.00 | 87 | 1041.9 |
| 20260505121003 | 5 | 300 | 0.0 | 4.8 | 0.00 | 0.00 | 0.00 | 87 | 1042.0 |
| 20260505120005 | 5 | 270 | 0.0 | 1.6 | 0.00 | 0.00 | 0.00 | 86 | 1041.8 |
| 20260505115003 | 6 | 270 | 0.0 | 1.6 | 0.00 | 0.00 | 0.00 | 85 | 1042.0 |
| 20260505114214 | 6 | 247 | 0.0 | 1.6 | 0.00 | 0.00 | 0.00 | 85 | 1042.1 |
| 20260505113004 | 6 | 248 | 0.0 | 3.2 | 0.00 | 0.00 | 0.00 | 86 | 1042.5 |
| 20260505112216 | 6 | 303 | 0.0 | 3.2 | 0.00 | 0.00 | 0.00 | 86 | 1042.5 |
| 20260505111003 | 6 | 316 | 0.0 | 4.8 | 0.00 | 0.00 | 0.00 | 86 | 1042.8 |